"SCET";"TARGET";"ELECTRON_DENSITY";"ERROR_FLAG";"ELECTRON_DENSITY_ERROR";"FREQ_FCE";"MEASURED_VALUE";"MEASURED_ITEM";"FREQ_PLASMA";"FREQ_UPPER_HYBRID";"FREQ_R_EQUALS_ZERO";"FREQ_L_EQUALS_ZERO";"ORBIT_NUMBER";"SATURN_RADIUS";"SATURN_IAU_LONGITUDE";"SATURN_SLS4_S_LONGITUDE";"SATURN_SLS4_N_LONGITUDE";"SATURN_SLS5_S_LONGITUDE";"SATURN_SLS5_N_LONGITUDE";"SATURN_LOCAL_TIME";"SATURN_KRONOGRAPHIC_LATITUDE";"SATURN_MAGNETIC_LATITUDE";"SATURN_L";"SATURN_L_OFFSET";"SATURN_SOLAR_EQUATORIAL_X";"SATURN_SOLAR_EQUATORIAL_Y";"SATURN_SOLAR_EQUATORIAL_Z";"SATURN_ALTITUDE";"ENCELADUS_ENCOUNTER_NUMBER";"ENCELADUS_RADIUS";"ENCELADUS_COROTATIONAL_X";"ENCELADUS_COROTATIONAL_Y";"ENCELADUS_COROTATIONAL_Z";"ENCELADUS_TRUE_ANOMALY";"ENCELADUS_PERIAPSIS_TIME";"JUPITER_RADIUS";"JUPITER_SYSTEMIII_LONGITUDE";"JUPITER_MAGNETIC_LATITUDE";"JUPITER_MAGNETIC_LOCAL_TIME";"JUPITER_L";"IO_PHASE";"EARTH_RADIUS";"EARTH_MAGNETIC_LATITUDE";"EARTH_LOCAL_TIME";"EARTH_L"
"[UTC]";"[0=Saturn, 1=Enceladus, 2=Jupiter, 3=Earth]";"[cm-3]";"[0=automated, 1=manual]";"[normalized density error]";"[Hz]";"[Hz]";"[0=upper hybrid frequency, 1=plasma frequency cutoff]";"[Hz]";"[Hz]";"[Hz]";"[Hz}";"[0, A, B, C, 3, 4, ... , 292, 293]";"[Rs where 1Rs=60268km]";"[degrees]";"[degrees]";"[degrees]";"[degrees]";"[degrees]";"[hours]";"[degrees]";"[degrees where offset=2293km north]";"[Rs where 1Rs=60268km]";"[Rs where 1Rs=60268km and offset=2293km north]";"[Rs where 1Rs=60268km]";"[Rs where 1Rs=60268km]";"[Rs where 1Rs=60268km]";"[km where ellipsoid a,b=60268km and c=54364km]";"[E0, E1, E2, ... , E21, E22]";"[Renc where 1Renc=252.1km]";"[Renc where 1Renc=252.1km]";"[Renc where 1Renc=252.1km]";"[Renc where 1Renc=252.1km]";"[degrees]";"[UTC]";"[Rj where 1Rj=71492km]";"[degrees]";"[degrees using JRM09 model]";"[hours using JRM09 model]";"[Rj where 1Rj=71492km]";"[degrees]";"[Re where 1Re=6378.1366km]";"[degrees]";"[hours]";"[Re where 1Re=6378.1366km]"
2011-02-21T00:00:07.442Z;0;1.5900e+01;0;     0.091;  1085.168;  35820.539; 0;  35804.098;  35820.539;  36350.793;  35265.625;145;   7.695; 208.987;;; 288.193; 348.393;  10.944;  -0.143;  -0.426;   7.695;   7.687;   7.403;  -2.099;  -0.019;;;;;;;;;;;;;;;;;;
2011-02-21T00:00:23.442Z;0;1.6030e+01;0;     0.101;  1085.168;  35972.496; 0;  35956.125;  35972.496;  36502.801;  35417.633;145;   7.697; 209.118;;; 288.325; 348.525;  10.946;  -0.143;  -0.426;   7.697;   7.689;   7.406;  -2.097;  -0.019;;;;;;;;;;;;;;;;;;
2011-02-21T00:00:31.442Z;0;1.7060e+01;0;     0.102;  1085.168;  37104.723; 0;  37088.852;  37104.723;  37635.402;  36550.234;145;   7.698; 209.184;;; 288.391; 348.591;  10.946;  -0.143;  -0.426;   7.698;   7.690;   7.407;  -2.096;  -0.019;;;;;;;;;;;;;;;;;;
2011-02-21T00:00:39.442Z;0;1.7550e+01;0;     0.106;  1085.168;  37636.523; 0;  37620.875;  37636.523;  38167.371;  37082.203;145;   7.699; 209.249;;; 288.457; 348.657;  10.947;  -0.142;  -0.426;   7.699;   7.691;   7.408;  -2.095;  -0.019;;;;;;;;;;;;;;;;;;
2011-02-21T00:00:47.442Z;0;1.6710e+01;0;     0.098;  1085.168;  36729.258; 0;  36713.223;  36729.258;  37259.816;  36174.648;145;   7.700; 209.315;;; 288.523; 348.723;  10.948;  -0.142;  -0.425;   7.700;   7.692;   7.409;  -2.094;  -0.019;;;;;;;;;;;;;;;;;;
2011-02-21T00:00:55.442Z;0;1.6530e+01;0;     0.117;  1085.168;  36523.137; 0;  36507.012;  36523.137;  37053.629;  35968.461;145;   7.701; 209.380;;; 288.589; 348.789;  10.948;  -0.142;  -0.425;   7.701;   7.693;   7.411;  -2.093;  -0.019;;;;;;;;;;;;;;;;;;
2011-02-21T00:01:11.442Z;0;1.6460e+01;0;     0.112;  1093.428;  36445.410; 0;  36429.004;  36445.410;  36979.820;  35886.391;145;   7.703; 209.512;;; 288.721; 348.921;  10.950;  -0.142;  -0.425;   7.703;   7.695;   7.413;  -2.091;  -0.019;;;;;;;;;;;;;;;;;;
2011-02-21T00:01:19.442Z;0;1.5910e+01;0;     0.098;  1093.428;  35839.715; 0;  35823.031;  35839.715;  36373.918;  35280.488;145;   7.704; 209.577;;; 288.787; 348.987;  10.950;  -0.142;  -0.425;   7.704;   7.696;   7.414;  -2.090;  -0.019;;;;;;;;;;;;;;;;;;
2011-02-21T00:01:27.441Z;0;1.5790e+01;0;     0.096;  1093.428;  35704.250; 0;  35687.504;  35704.250;  36238.406;  35144.977;145;   7.704; 209.643;;; 288.853; 349.053;  10.951;  -0.142;  -0.425;   7.704;   7.697;   7.416;  -2.090;  -0.019;;;;;;;;;;;;;;;;;;
2011-02-21T00:01:35.441Z;0;1.5890e+01;0;     0.098;  1093.428;  35807.727; 0;  35791.027;  35807.727;  36341.918;  35248.488;145;   7.705; 209.708;;; 288.919; 349.119;  10.951;  -0.142;  -0.425;   7.705;   7.698;   7.417;  -2.089;  -0.019;;;;;;;;;;;;;;;;;;
2011-02-21T00:01:43.441Z;0;1.6090e+01;0;     0.098;  1093.428;  36038.266; 0;  36021.676;  36038.266;  36572.535;  35479.109;145;   7.706; 209.774;;; 288.985; 349.185;  10.952;  -0.142;  -0.425;   7.706;   7.699;   7.418;  -2.088;  -0.019;;;;;;;;;;;;;;;;;;
2011-02-21T00:01:59.441Z;0;1.6700e+01;0;     0.109;  1093.428;  36708.223; 0;  36691.934;  36708.223;  37242.723;  36149.293;145;   7.708; 209.905;;; 289.117; 349.317;  10.953;  -0.142;  -0.425;   7.708;   7.700;   7.421;  -2.086;  -0.019;;;;;;;;;;;;;;;;;;
2011-02-21T00:02:07.441Z;0;1.5830e+01;0;     0.097;  1078.112;  35747.828; 0;  35731.566;  35747.828;  36274.688;  35196.578;145;   7.709; 209.971;;; 289.184; 349.384;  10.954;  -0.142;  -0.425;   7.709;   7.701;   7.422;  -2.085;  -0.019;;;;;;;;;;;;;;;;;;
2011-02-21T00:02:15.441Z;0;1.6690e+01;0;     0.116;  1078.112;  36705.266; 0;  36689.430;  36705.266;  37232.445;  36154.332;145;   7.710; 210.036;;; 289.250; 349.450;  10.955;  -0.142;  -0.424;   7.710;   7.702;   7.423;  -2.084;  -0.019;;;;;;;;;;;;;;;;;;
2011-02-21T00:02:23.441Z;0;1.7120e+01;0;     0.101;  1078.112;  37174.332; 0;  37158.695;  37174.332;  37701.660;  36623.551;145;   7.711; 210.102;;; 289.316; 349.516;  10.955;  -0.142;  -0.424;   7.711;   7.703;   7.424;  -2.083;  -0.019;;;;;;;;;;;;;;;;;;
2011-02-21T00:02:31.441Z;0;1.7350e+01;0;     0.099;  1078.112;  37415.062; 0;  37399.527;  37415.062;  37942.469;  36864.355;145;   7.712; 210.168;;; 289.382; 349.582;  10.956;  -0.142;  -0.424;   7.712;   7.704;   7.426;  -2.082;  -0.019;;;;;;;;;;;;;;;;;;
2011-02-21T00:02:47.441Z;0;1.4940e+01;0;     0.076;  1078.112;  34726.617; 0;  34709.879;  34726.617;  35253.121;  34175.008;145;   7.714; 210.299;;; 289.515; 349.715;  10.957;  -0.142;  -0.424;   7.714;   7.706;   7.428;  -2.080;  -0.019;;;;;;;;;;;;;;;;;;
2011-02-21T00:02:55.441Z;0;1.5750e+01;0;     0.105;  1078.112;  35653.211; 0;  35636.906;  35653.211;  36180.039;  35101.926;145;   7.715; 210.364;;; 289.581; 349.781;  10.958;  -0.141;  -0.424;   7.715;   7.707;   7.429;  -2.079;  -0.019;;;;;;;;;;;;;;;;;;
2011-02-21T00:03:03.441Z;0;1.6600e+01;0;     0.122;  1075.592;  36600.168; 0;  36584.359;  36600.168;  37126.109;  36050.516;145;   7.716; 210.430;;; 289.647; 349.847;  10.958;  -0.141;  -0.424;   7.716;   7.708;   7.431;  -2.078;  -0.019;;;;;;;;;;;;;;;;;;
2011-02-21T00:03:11.441Z;0;1.5610e+01;0;     0.098;  1075.592;  35497.816; 0;  35481.516;  35497.816;  36023.391;  34947.797;145;   7.717; 210.496;;; 289.714; 349.914;  10.959;  -0.141;  -0.424;   7.717;   7.709;   7.432;  -2.077;  -0.019;;;;;;;;;;;;;;;;;;
2011-02-21T00:03:19.441Z;0;1.7000e+01;0;     0.101;  1075.592;  37039.281; 0;  37023.660;  37039.281;  37565.363;  36489.770;145;   7.718; 210.561;;; 289.780; 349.980;  10.960;  -0.141;  -0.424;   7.718;   7.710;   7.433;  -2.076;  -0.019;;;;;;;;;;;;;;;;;;
2011-02-21T00:03:35.441Z;0;1.7200e+01;0;     0.101;  1075.592;  37258.555; 0;  37243.027;  37258.555;  37784.703;  36709.113;145;   7.719; 210.693;;; 289.913; 350.113;  10.961;  -0.141;  -0.424;   7.720;   7.712;   7.436;  -2.074;  -0.019;;;;;;;;;;;;;;;;;;
2011-02-21T00:03:43.441Z;0;1.5720e+01;0;     0.084;  1075.592;  35624.715; 0;  35608.473;  35624.715;  36150.332;  35074.738;145;   7.720; 210.758;;; 289.979; 350.179;  10.961;  -0.141;  -0.423;   7.720;   7.713;   7.437;  -2.073;  -0.019;;;;;;;;;;;;;;;;;;
2011-02-21T00:03:51.441Z;0;1.5630e+01;0;     0.083;  1075.592;  35519.094; 0;  35502.805;  35519.094;  36044.672;  34969.082;145;   7.721; 210.824;;; 290.045; 350.245;  10.962;  -0.141;  -0.423;   7.721;   7.714;   7.438;  -2.072;  -0.019;;;;;;;;;;;;;;;;;;
2011-02-21T00:03:59.440Z;0;1.5570e+01;0;     0.074;  1075.592;  35449.758; 0;  35433.438;  35449.758;  35975.312;  34899.723;145;   7.722; 210.890;;; 290.112; 350.312;  10.963;  -0.141;  -0.423;   7.722;   7.715;   7.439;  -2.071;  -0.019;;;;;;;;;;;;;;;;;;
2011-02-21T00:04:07.440Z;0;1.5540e+01;0;     0.072;  1076.796;  35413.852; 0;  35397.477;  35413.852;  35939.969;  34863.172;145;   7.723; 210.955;;; 290.178; 350.378;  10.963;  -0.141;  -0.423;   7.723;   7.715;   7.441;  -2.070;  -0.019;;;;;;;;;;;;;;;;;;
2011-02-21T00:04:23.440Z;0;1.5370e+01;0;     0.064;  1076.796;  35216.574; 0;  35200.109;  35216.574;  35742.625;  34665.828;145;   7.725; 211.086;;; 290.311; 350.511;  10.965;  -0.141;  -0.423;   7.725;   7.717;   7.443;  -2.068;  -0.019;;;;;;;;;;;;;;;;;;
2011-02-21T00:04:31.440Z;0;1.5140e+01;0;     0.059;  1076.796;  34955.137; 0;  34938.547;  34955.137;  35481.094;  34404.297;145;   7.726; 211.152;;; 290.378; 350.578;  10.965;  -0.141;  -0.423;   7.726;   7.718;   7.444;  -2.067;  -0.019;;;;;;;;;;;;;;;;;;
2011-02-21T00:04:39.440Z;0;1.5490e+01;0;     0.079;  1076.796;  35360.848; 0;  35344.449;  35360.848;  35886.945;  34810.152;145;   7.727; 211.218;;; 290.444; 350.644;  10.966;  -0.141;  -0.423;   7.727;   7.719;   7.446;  -2.066;  -0.019;;;;;;;;;;;;;;;;;;
2011-02-21T00:04:47.440Z;0;1.7100e+01;0;     0.108;  1076.796;  37145.137; 0;  37129.527;  37145.137;  37671.828;  36595.031;145;   7.728; 211.283;;; 290.511; 350.711;  10.967;  -0.141;  -0.423;   7.728;   7.720;   7.447;  -2.065;  -0.019;;;;;;;;;;;;;;;;;;
2011-02-21T00:04:55.440Z;0;1.8350e+01;0;     0.112;  1076.796;  38480.562; 0;  38465.492;  38480.562;  39007.660;  37930.863;145;   7.729; 211.349;;; 290.577; 350.777;  10.967;  -0.141;  -0.423;   7.729;   7.721;   7.448;  -2.064;  -0.019;;;;;;;;;;;;;;;;;;
2011-02-21T00:05:11.440Z;0;1.6940e+01;0;     0.101;  1073.996;  36975.504; 0;  36959.902;  36975.504;  37500.801;  36426.805;145;   7.731; 211.480;;; 290.711; 350.911;  10.968;  -0.140;  -0.422;   7.731;   7.723;   7.450;  -2.062;  -0.019;;;;;;;;;;;;;;;;;;
2011-02-21T00:05:19.440Z;0;1.6000e+01;0;     0.108;  1073.996;  35941.074; 0;  35925.023;  35941.074;  36466.035;  35392.039;145;   7.732; 211.546;;; 290.777; 350.977;  10.969;  -0.140;  -0.422;   7.732;   7.724;   7.452;  -2.061;  -0.019;;;;;;;;;;;;;;;;;;
2011-02-21T00:05:27.440Z;0;1.5660e+01;0;     0.096;  1073.996;  35555.254; 0;  35539.031;  35555.254;  36080.086;  35006.090;145;   7.733; 211.612;;; 290.844; 351.044;  10.970;  -0.140;  -0.422;   7.733;   7.725;   7.453;  -2.060;  -0.019;;;;;;;;;;;;;;;;;;
2011-02-21T00:05:35.440Z;0;1.5690e+01;0;     0.096;  1073.996;  35587.668; 0;  35571.457;  35587.668;  36112.508;  35038.512;145;   7.734; 211.677;;; 290.911; 351.111;  10.970;  -0.140;  -0.422;   7.734;   7.726;   7.454;  -2.059;  -0.019;;;;;;;;;;;;;;;;;;
2011-02-21T00:05:43.440Z;0;1.5580e+01;0;     0.093;  1073.996;  35457.457; 0;  35441.188;  35457.457;  35982.254;  34908.258;145;   7.734; 211.743;;; 290.977; 351.177;  10.971;  -0.140;  -0.422;   7.735;   7.727;   7.455;  -2.058;  -0.019;;;;;;;;;;;;;;;;;;
2011-02-21T00:05:59.440Z;0;1.7120e+01;0;     0.105;  1073.996;  37168.902; 0;  37153.383;  37168.902;  37694.262;  36620.266;145;   7.736; 211.874;;; 291.111; 351.311;  10.972;  -0.140;  -0.422;   7.736;   7.729;   7.458;  -2.056;  -0.019;;;;;;;;;;;;;;;;;;
2011-02-21T00:06:07.440Z;0;1.7120e+01;0;     0.106;  1058.204;  37170.699; 0;  37155.633;  37170.699;  37688.504;  36630.297;145;   7.737; 211.940;;; 291.178; 351.378;  10.973;  -0.140;  -0.422;   7.737;   7.730;   7.459;  -2.056;  -0.019;;;;;;;;;;;;;;;;;;
2011-02-21T00:06:15.440Z;0;1.6210e+01;0;     0.116;  1058.204;  36167.293; 0;  36151.809;  36167.293;  36684.781;  35626.578;145;   7.738; 212.006;;; 291.244; 351.444;  10.973;  -0.140;  -0.422;   7.738;   7.730;   7.460;  -2.055;  -0.019;;;;;;;;;;;;;;;;;;
2011-02-21T00:06:23.440Z;0;1.6130e+01;0;     0.115;  1058.204;  36080.219; 0;  36064.699;  36080.219;  36597.680;  35539.477;145;   7.739; 212.072;;; 291.311; 351.511;  10.974;  -0.140;  -0.422;   7.739;   7.731;   7.462;  -2.054;  -0.019;;;;;;;;;;;;;;;;;;
2011-02-21T00:06:31.440Z;0;1.7160e+01;0;     0.099;  1058.204;  37216.398; 0;  37201.352;  37216.398;  37734.215;  36676.012;145;   7.740; 212.137;;; 291.378; 351.578;  10.975;  -0.140;  -0.422;   7.740;   7.732;   7.463;  -2.053;  -0.019;;;;;;;;;;;;;;;;;;
2011-02-21T00:06:47.439Z;0;1.7330e+01;0;     0.098;  1058.204;  37397.270; 0;  37382.293;  37397.270;  37915.141;  36856.938;145;   7.742; 212.269;;; 291.512; 351.712;  10.976;  -0.140;  -0.421;   7.742;   7.734;   7.465;  -2.051;  -0.019;;;;;;;;;;;;;;;;;;
2011-02-21T00:06:55.439Z;0;1.7230e+01;0;     0.107;  1058.204;  37290.996; 0;  37275.980;  37290.996;  37808.836;  36750.633;145;   7.743; 212.334;;; 291.579; 351.779;  10.977;  -0.140;  -0.421;   7.743;   7.735;   7.467;  -2.050;  -0.019;;;;;;;;;;;;;;;;;;
2011-02-21T00:07:03.439Z;0;1.7380e+01;0;     0.106;  1064.868;  37454.281; 0;  37439.141;  37454.281;  37975.359;  36910.492;145;   7.744; 212.400;;; 291.645; 351.845;  10.977;  -0.140;  -0.421;   7.744;   7.736;   7.468;  -2.049;  -0.019;;;;;;;;;;;;;;;;;;
2011-02-21T00:07:11.439Z;0;1.6900e+01;0;     0.109;  1064.868;  36932.664; 0;  36917.309;  36932.664;  37453.582;  36388.715;145;   7.745; 212.466;;; 291.712; 351.912;  10.978;  -0.140;  -0.421;   7.745;   7.737;   7.469;  -2.048;  -0.019;;;;;;;;;;;;;;;;;;
2011-02-21T00:07:19.439Z;0;1.6690e+01;0;     0.115;  1064.868;  36697.098; 0;  36681.645;  36697.098;  37217.941;  36153.074;145;   7.746; 212.531;;; 291.779; 351.979;  10.978;  -0.140;  -0.421;   7.746;   7.738;   7.470;  -2.047;  -0.019;;;;;;;;;;;;;;;;;;
2011-02-21T00:07:35.439Z;0;1.7090e+01;0;     0.111;  1064.868;  37135.629; 0;  37120.359;  37135.629;  37656.609;  36591.742;145;   7.748; 212.663;;; 291.913; 352.113;  10.980;  -0.139;  -0.421;   7.748;   7.740;   7.473;  -2.045;  -0.019;;;;;;;;;;;;;;;;;;
2011-02-21T00:07:43.439Z;0;1.6150e+01;0;     0.115;  1064.868;  36105.410; 0;  36089.703;  36105.410;  36626.066;  35561.195;145;   7.749; 212.728;;; 291.980; 352.180;  10.980;  -0.139;  -0.421;   7.749;   7.741;   7.474;  -2.044;  -0.019;;;;;;;;;;;;;;;;;;
2011-02-21T00:07:51.439Z;0;1.5930e+01;0;     0.107;  1064.868;  35861.328; 0;  35845.516;  35861.328;  36381.902;  35317.035;145;   7.750; 212.794;;; 292.047; 352.247;  10.981;  -0.139;  -0.421;   7.750;   7.742;   7.475;  -2.043;  -0.019;;;;;;;;;;;;;;;;;;
2011-02-21T00:07:59.439Z;0;1.5870e+01;0;     0.107;  1064.868;  35786.105; 0;  35770.258;  35786.105;  36306.656;  35241.785;145;   7.750; 212.860;;; 292.114; 352.314;  10.982;  -0.139;  -0.420;   7.750;   7.743;   7.477;  -2.042;  -0.019;;;;;;;;;;;;;;;;;;
2011-02-21T00:08:07.439Z;0;1.5990e+01;0;     0.111;  1069.264;  35928.332; 0;  35912.418;  35928.332;  36451.027;  35381.766;145;   7.751; 212.926;;; 292.181; 352.381;  10.982;  -0.139;  -0.420;   7.751;   7.744;   7.478;  -2.041;  -0.019;;;;;;;;;;;;;;;;;;
2011-02-21T00:08:23.439Z;0;1.6720e+01;0;     0.116;  1069.264;  36736.148; 0;  36720.582;  36736.148;  37259.109;  36189.844;145;   7.753; 213.057;;; 292.316; 352.516;  10.983;  -0.139;  -0.420;   7.753;   7.745;   7.480;  -2.039;  -0.019;;;;;;;;;;;;;;;;;;
2011-02-21T00:08:31.439Z;0;1.6620e+01;0;     0.111;  1069.264;  36628.828; 0;  36613.219;  36628.828;  37151.754;  36082.488;145;   7.754; 213.123;;; 292.383; 352.583;  10.984;  -0.139;  -0.420;   7.754;   7.746;   7.482;  -2.038;  -0.019;;;;;;;;;;;;;;;;;;
2011-02-21T00:08:39.439Z;0;1.6040e+01;0;     0.108;  1069.264;  35980.473; 0;  35964.582;  35980.473;  36503.188;  35433.922;145;   7.755; 213.188;;; 292.450; 352.650;  10.985;  -0.139;  -0.420;   7.755;   7.747;   7.483;  -2.037;  -0.019;;;;;;;;;;;;;;;;;;
2011-02-21T00:08:47.439Z;0;1.5710e+01;0;     0.106;  1069.264;  35612.707; 0;  35596.652;  35612.707;  36135.297;  35066.035;145;   7.756; 213.254;;; 292.517; 352.717;  10.985;  -0.139;  -0.420;   7.756;   7.748;   7.484;  -2.036;  -0.019;;;;;;;;;;;;;;;;;;
2011-02-21T00:08:55.439Z;0;1.5910e+01;0;     0.107;  1069.264;  35833.418; 0;  35817.461;  35833.418;  36356.082;  35286.820;145;   7.757; 213.320;;; 292.584; 352.784;  10.986;  -0.139;  -0.420;   7.757;   7.749;   7.485;  -2.035;  -0.019;;;;;;;;;;;;;;;;;;
2011-02-21T00:09:11.439Z;0;1.5340e+01;0;     0.063;  1069.684;  35184.008; 0;  35167.742;  35184.008;  35706.652;  34636.969;145;   7.759; 213.451;;; 292.719; 352.919;  10.987;  -0.139;  -0.420;   7.759;   7.751;   7.488;  -2.033;  -0.019;;;;;;;;;;;;;;;;;;
2011-02-21T00:09:19.438Z;0;1.5780e+01;0;     0.093;  1069.684;  35693.695; 0;  35677.664;  35693.695;  36216.516;  35146.828;145;   7.760; 213.517;;; 292.786; 352.986;  10.988;  -0.139;  -0.420;   7.760;   7.752;   7.489;  -2.032;  -0.019;;;;;;;;;;;;;;;;;;
2011-02-21T00:09:27.438Z;0;1.6080e+01;0;     0.110;  1069.684;  36023.473; 0;  36007.586;  36023.473;  36546.402;  35476.719;145;   7.761; 213.583;;; 292.853; 353.053;  10.988;  -0.139;  -0.419;   7.761;   7.753;   7.490;  -2.031;  -0.019;;;;;;;;;;;;;;;;;;
2011-02-21T00:09:35.438Z;0;1.6450e+01;0;     0.105;  1069.684;  36435.090; 0;  36419.383;  36435.090;  36958.152;  35888.469;145;   7.762; 213.649;;; 292.920; 353.120;  10.989;  -0.139;  -0.419;   7.762;   7.754;   7.491;  -2.030;  -0.019;;;;;;;;;;;;;;;;;;
2011-02-21T00:09:43.438Z;0;1.5700e+01;0;     0.105;  1069.684;  35602.719; 0;  35586.645;  35602.719;  36125.508;  35055.824;145;   7.763; 213.714;;; 292.988; 353.188;  10.990;  -0.139;  -0.419;   7.763;   7.755;   7.493;  -2.029;  -0.019;;;;;;;;;;;;;;;;;;
2011-02-21T00:09:59.438Z;0;1.5710e+01;0;     0.110;  1069.684;  35613.781; 0;  35597.715;  35613.781;  36136.574;  35066.891;145;   7.765; 213.846;;; 293.122; 353.322;  10.991;  -0.138;  -0.419;   7.765;   7.757;   7.495;  -2.027;  -0.019;;;;;;;;;;;;;;;;;;
2011-02-21T00:10:07.438Z;0;1.5690e+01;0;     0.105;  1065.512;  35588.957; 0;  35573.004;  35588.957;  36109.750;  35044.234;145;   7.765; 213.912;;; 293.188; 353.388;  10.991;  -0.138;  -0.419;   7.766;   7.758;   7.496;  -2.026;  -0.019;;;;;;;;;;;;;;;;;;
2011-02-21T00:10:15.438Z;0;1.5820e+01;0;     0.116;  1065.512;  35729.781; 0;  35713.891;  35729.781;  36250.621;  35185.109;145;   7.766; 213.977;;; 293.254; 353.454;  10.992;  -0.138;  -0.419;   7.766;   7.759;   7.498;  -2.025;  -0.019;;;;;;;;;;;;;;;;;;
2011-02-21T00:10:23.438Z;0;1.5970e+01;0;     0.113;  1065.512;  35904.703; 0;  35888.891;  35904.703;  36425.598;  35360.086;145;   7.767; 214.043;;; 293.320; 353.520;  10.993;  -0.138;  -0.419;   7.767;   7.760;   7.499;  -2.024;  -0.019;;;;;;;;;;;;;;;;;;
2011-02-21T00:10:31.438Z;0;1.6710e+01;0;     0.107;  1065.512;  36725.551; 0;  36710.090;  36725.551;  37246.711;  36181.199;145;   7.768; 214.109;;; 293.386; 353.586;  10.993;  -0.138;  -0.419;   7.768;   7.761;   7.500;  -2.023;  -0.019;;;;;;;;;;;;;;;;;;
2011-02-21T00:10:47.438Z;0;1.5780e+01;0;     0.109;  1065.512;  35692.473; 0;  35676.566;  35692.473;  36213.297;  35147.785;145;   7.770; 214.240;;; 293.518; 353.718;  10.995;  -0.138;  -0.419;   7.770;   7.762;   7.503;  -2.021;  -0.019;;;;;;;;;;;;;;;;;;
2011-02-21T00:10:55.438Z;0;1.5770e+01;0;     0.108;  1065.512;  35678.141; 0;  35662.227;  35678.141;  36198.961;  35133.449;145;   7.771; 214.306;;; 293.584; 353.784;  10.995;  -0.138;  -0.418;   7.771;   7.763;   7.504;  -2.020;  -0.019;;;;;;;;;;;;;;;;;;
2011-02-21T00:11:03.438Z;0;1.5850e+01;0;     0.111;  1051.092;  35769.098; 0;  35753.652;  35769.098;  36283.059;  35231.969;145;   7.772; 214.372;;; 293.650; 353.850;  10.996;  -0.138;  -0.418;   7.772;   7.764;   7.505;  -2.019;  -0.019;;;;;;;;;;;;;;;;;;
2011-02-21T00:11:11.438Z;0;1.6050e+01;0;     0.107;  1051.092;  35986.875; 0;  35971.523;  35986.875;  36500.906;  35449.816;145;   7.773; 214.438;;; 293.716; 353.916;  10.996;  -0.138;  -0.418;   7.773;   7.765;   7.506;  -2.019;  -0.019;;;;;;;;;;;;;;;;;;
2011-02-21T00:11:19.438Z;0;1.6860e+01;0;     0.115;  1051.092;  36890.004; 0;  36875.027;  36890.004;  37404.316;  36353.227;145;   7.774; 214.503;;; 293.782; 353.982;  10.997;  -0.138;  -0.418;   7.774;   7.766;   7.507;  -2.018;  -0.019;;;;;;;;;;;;;;;;;;
2011-02-21T00:11:35.438Z;0;1.6500e+01;0;     0.118;  1051.092;  36495.301; 0;  36480.160;  36495.301;  37009.492;  35958.402;145;   7.776; 214.635;;; 293.913; 354.113;  10.998;  -0.138;  -0.418;   7.776;   7.768;   7.510;  -2.016;  -0.019;;;;;;;;;;;;;;;;;;
2011-02-21T00:11:43.438Z;0;1.6860e+01;0;     0.104;  1051.092;  36892.387; 0;  36877.410;  36892.387;  37406.699;  36355.609;145;   7.777; 214.701;;; 293.979; 354.179;  10.999;  -0.138;  -0.418;   7.777;   7.769;   7.511;  -2.015;  -0.019;;;;;;;;;;;;;;;;;;
2011-02-21T00:11:51.438Z;0;1.6940e+01;0;     0.109;  1051.092;  36973.609; 0;  36958.668;  36973.609;  37487.949;  36436.855;145;   7.778; 214.767;;; 294.045; 354.245;  11.000;  -0.138;  -0.418;   7.778;   7.770;   7.512;  -2.014;  -0.019;;;;;;;;;;;;;;;;;;
2011-02-21T00:11:59.437Z;0;1.6840e+01;0;     0.112;  1051.092;  36861.129; 0;  36846.141;  36861.129;  37375.434;  36324.340;145;   7.779; 214.832;;; 294.111; 354.311;  11.000;  -0.138;  -0.418;   7.779;   7.771;   7.514;  -2.013;  -0.019;;;;;;;;;;;;;;;;;;
2011-02-21T00:12:07.437Z;0;1.4310e+01;0;     0.153;  1045.968;  33985.988; 0;  33969.891;  33985.988;  34496.898;  33450.930;145;   7.780; 214.898;;; 294.177; 354.377;  11.001;  -0.138;  -0.418;   7.780;   7.772;   7.515;  -2.012;  -0.019;;;;;;;;;;;;;;;;;;
2011-02-21T00:12:23.437Z;0;1.3900e+01;0;     0.166;  1045.968;  33496.047; 0;  33479.711;  33496.047;  34006.781;  32960.812;145;   7.781; 215.030;;; 294.308; 354.508;  11.002;  -0.137;  -0.417;   7.782;   7.774;   7.517;  -2.010;  -0.019;;;;;;;;;;;;;;;;;;
2011-02-21T00:12:31.437Z;0;1.5980e+01;0;     0.137;  1045.968;  35908.438; 0;  35893.199;  35908.438;  36419.996;  35374.027;145;   7.782; 215.095;;; 294.374; 354.574;  11.003;  -0.137;  -0.417;   7.782;   7.775;   7.519;  -2.009;  -0.019;;;;;;;;;;;;;;;;;;
2011-02-21T00:12:39.437Z;0;1.6760e+01;0;     0.131;  1045.968;  36777.953; 0;  36763.078;  36777.953;  37289.781;  36243.812;145;   7.783; 215.161;;; 294.440; 354.640;  11.003;  -0.137;  -0.417;   7.783;   7.776;   7.520;  -2.008;  -0.019;;;;;;;;;;;;;;;;;;
2011-02-21T00:12:47.437Z;0;1.7140e+01;0;     0.126;  1045.968;  37196.012; 0;  37181.301;  37196.012;  37707.965;  36661.996;145;   7.784; 215.227;;; 294.505; 354.705;  11.004;  -0.137;  -0.417;   7.784;   7.776;   7.521;  -2.007;  -0.019;;;;;;;;;;;;;;;;;;
2011-02-21T00:12:55.437Z;0;1.7510e+01;0;     0.110;  1045.968;  37592.727; 0;  37578.172;  37592.727;  38104.797;  37058.828;145;   7.785; 215.293;;; 294.571; 354.771;  11.005;  -0.137;  -0.417;   7.785;   7.777;   7.522;  -2.006;  -0.019;;;;;;;;;;;;;;;;;;
2011-02-21T00:13:11.437Z;0;1.5780e+01;0;     0.103;  1058.652;  35684.840; 0;  35669.133;  35684.840;  36202.387;  35143.734;145;   7.787; 215.424;;; 294.702; 354.902;  11.006;  -0.137;  -0.417;   7.787;   7.779;   7.525;  -2.004;  -0.019;;;;;;;;;;;;;;;;;;
2011-02-21T00:13:19.437Z;0;1.5670e+01;0;     0.099;  1058.652;  35560.793; 0;  35545.031;  35560.793;  36078.297;  35019.645;145;   7.788; 215.490;;; 294.768; 354.968;  11.006;  -0.137;  -0.417;   7.788;   7.780;   7.526;  -2.003;  -0.019;;;;;;;;;;;;;;;;;;
2011-02-21T00:13:27.437Z;0;1.5690e+01;0;     0.100;  1058.652;  35590.293; 0;  35574.543;  35590.293;  36107.809;  35049.156;145;   7.789; 215.556;;; 294.834; 355.034;  11.007;  -0.137;  -0.417;   7.789;   7.781;   7.527;  -2.002;  -0.019;;;;;;;;;;;;;;;;;;
2011-02-21T00:13:35.437Z;0;1.5750e+01;0;     0.108;  1058.652;  35657.367; 0;  35641.648;  35657.367;  36174.906;  35116.254;145;   7.790; 215.622;;; 294.899; 355.099;  11.008;  -0.137;  -0.417;   7.790;   7.782;   7.528;  -2.001;  -0.019;;;;;;;;;;;;;;;;;;